Regional Weather Roundup
Issued by NWS Burlington, VT

Home | Current Version | Previous Version | Text Only | Print | Product List | Glossary On
Versions: 1 2 3 4 5 6 7 8 9 10 11 12 13 14 15 16 17 18 19 20 21 22 23 24 25 26 27 28 29 30 31 32 33 34 35 36 37 38 39 40 41 42 43 44 45 46 47 48 49 50
000
ASUS41 KBTV 210410
RWRBTV
VERMONT REGIONAL WEATHER ROUNDUP
NATIONAL WEATHER SERVICE BURLINGTON VT
1200 AM EDT SAT OCT 21 2017

NOTE: "FAIR" INDICATES FEW OR NO CLOUDS BELOW 12,000 FEET WITH NO
SIGNIFICANT WEATHER AND/OR OBSTRUCTIONS TO VISIBILITY.

* THESE REPORTS ARE NOT UNDER NWS QUALITY CONTROL AND/OR DO NOT
  REPORT WEATHER SUCH AS PRECIPITATION AND FOG.

VTZ001>019-210500-
_____VERMONT_____


CITY           SKY/WX    TMP DP  RH WIND       PRES   REMARKS
BURLINGTON     CLEAR     46  39  76 CALM      30.16S
MORRISVILLE    CLEAR     36  35  96 CALM      30.17S
ST. JOHNSBURY*   N/A     42  38  85 MISG      30.16R
LYNDONVILLE*   FAIR      45  33  64 CALM      30.18R
MIDDLEBURY*    FAIR      44  37  77 CALM      30.17S
RUTLAND*       CLEAR     46  36  68 SE8       30.20R
SPRINGFIELD    PTCLDY    42  37  82 CALM      30.20
HIGHGATE*      FAIR      44  39  83 SE5       30.15S
NEWPORT*       FAIR      49  35  58 SW5       30.16R
BENNINGTON     PTCLDY    42  37  82 S3        30.21
SUTTON*          N/A     45 N/A N/A MISG        N/A

_____LAKE CHAMPLAIN_____


CITY           SKY/WX    TMP DP  RH WIND       PRES   REMARKS
COLCHESTER RF*   N/A     57  50  77 S8          N/A

$$

NYZ007-026>031-035-052-083-087-210500-
_____NORTHERN NEW YORK_____


CITY           SKY/WX    TMP DP  RH WIND       PRES   REMARKS
PLATTSBURGH    CLEAR     47  38  71 CALM      30.15R
SARANAC LAKE   CLOUDY    38  35  89 S3        30.19R
MASSENA        CLEAR     53  40  61 SW9       30.16R
OGDENSBURG*    FAIR      47  43  84 S3        30.17R
POTSDAM*       CLEAR     52  37  58 SW7       30.17R
WATERTOWN      CLEAR     51  36  56 CALM      30.19R
FT DRUM        CLEAR     48  36  61 S8        30.18R
ALBANY         CLEAR     49  35  58 W5        30.22R
GLENS FALLS    CLEAR     39  35  86 SE5       30.20R

$$
NHZ002-005-011-210500-
_____NEW HAMPSHIRE_____


CITY           SKY/WX    TMP DP  RH WIND       PRES   REMARKS
LEBANON        CLEAR     41  36  82 CALM      30.18R
KEENE          CLOUDY    40  36  86 CALM      30.20R
MT WASHINGTON  PTCLDY    36  27  69 NW52        N/A  WCI  19
PLYMOUTH       FAIR      41  37  83 CALM      30.17R
WHITEFIELD     CLEAR     35  33  92 CALM      30.17R

$$

_____REGIONAL QUEBEC LOCATIONS_____


CITY           SKY/WX    TMP DP  RH WIND       PRES   REMARKS
MONTREAL       CLEAR     54  41  62 SW8       30.13R
QUEBEC CITY    CLEAR     39  34  81 NW5       30.10S
SHERBROOKE     CLEAR     39  36  87 VRB2      30.13R

_____REGIONAL ONTARIO LOCATIONS_____


CITY           SKY/WX    TMP DP  RH WIND       PRES   REMARKS
OTTAWA         CLEAR     50  43  76 SW5       30.13R

______KEY______
VSB  - VISIBILITY IN MILES
WCI  - WIND CHILL INDEX
HX   - HEAT INDEX
$$
NNNN



USA.gov is the U.S. government's official web portal to all federal, state and local government web resources and services.